| time (UTC) | temp F | wind direction | speed knots | gust knots | rain 1hr in | rain 24hr in | rain mn in | humidity % | barometer mb |
| 20260831094540 | 67 | 138 | 0.0 | 0.0 | 0.00 | 0.00 | 0.00 | 96 | 1023.7 |
| 20260831091536 | 67 | 138 | 0.0 | 0.0 | 0.00 | 0.00 | 0.00 | 95 | 1022.9 |
| 20260831084532 | 67 | 138 | 0.0 | 0.0 | 0.00 | 0.00 | 0.00 | 95 | 1022.9 |
| 20260831081532 | 67 | 138 | 0.0 | 0.0 | 0.00 | 0.00 | 0.00 | 96 | 1022.9 |
| 20260831074531 | 68 | 138 | 0.0 | 0.0 | 0.00 | 0.00 | 0.00 | 95 | 1022.9 |
| 20260831071527 | 68 | 138 | 0.0 | 0.0 | 0.00 | 0.00 | 0.00 | 94 | 1022.9 |
| 20260831064527 | 69 | 138 | 0.0 | 0.0 | 0.00 | 0.00 | 0.00 | 93 | 1023.3 |
| 20260831061523 | 71 | 138 | 1.7 | 1.7 | 0.00 | 0.00 | 0.00 | 88 | 1022.9 |
| 20260831054522 | 71 | 42 | 0.0 | 0.0 | 0.00 | 0.00 | 0.00 | 88 | 1023.3 |
| 20260831051518 | 71 | 42 | 0.0 | 0.0 | 0.00 | 0.00 | 0.00 | 89 | 1023.7 |
| 20260831044518 | 72 | 42 | 0.0 | 0.0 | 0.00 | 0.00 | 0.00 | 87 | 1023.7 |
| 20260831041515 | 72 | 264 | 0.0 | 0.0 | 0.00 | 0.00 | 0.00 | 92 | 1023.7 |
| 20260831034515 | 73 | 127 | 0.9 | 0.9 | 0.00 | 0.00 | 0.00 | 94 | 1023.3 |
| 20260831031513 | 73 | 217 | 0.0 | 0.0 | 0.00 | 0.00 | 0.00 | 93 | 1024.0 |
| 20260831024512 | 73 | 266 | 0.0 | 0.0 | 0.00 | 0.00 | 0.00 | 92 | 1024.0 |
| 20260831021509 | 74 | 299 | 0.0 | 0.0 | 0.00 | 0.00 | 0.00 | 90 | 1024.0 |
| 20260831014510 | 74 | 299 | 0.0 | 0.0 | 0.00 | 0.00 | 0.00 | 88 | 1024.0 |
| 20260831011508 | 75 | 54 | 0.0 | 0.0 | 0.00 | 0.00 | 0.00 | 88 | 1023.3 |
| 20260831004503 | 76 | 54 | 0.0 | 0.0 | 0.00 | 0.00 | 0.00 | 86 | 1022.9 |
| 20260831001502 | 76 | 54 | 0.0 | 0.0 | 0.00 | 0.00 | 0.00 | 83 | 1022.5 |
| 20260830234501 | 78 | 76 | 0.0 | 0.0 | 0.00 | 0.00 | 0.00 | 80 | 1022.2 |
| 20260830231459 | 79 | 76 | 0.0 | 0.0 | 0.00 | 0.00 | 0.00 | 79 | 1022.5 |
| 20260830224458 | 80 | 84 | 1.7 | 1.7 | 0.00 | 0.00 | 0.00 | 72 | 1022.2 |
| 20260830221455 | 81 | 70 | 0.0 | 0.0 | 0.00 | 0.00 | 0.00 | 68 | 1022.2 |
| 20260830214451 | 82 | 36 | 0.0 | 0.0 | 0.00 | 0.00 | 0.00 | 57 | 1022.2 |
| 20260830211449 | 85 | 12 | 0.9 | 0.9 | 0.00 | 0.00 | 0.00 | 46 | 1022.2 |
| 20260830204448 | 85 | 246 | 0.0 | 0.0 | 0.00 | 0.00 | 0.00 | 51 | 1022.2 |
| 20260830201446 | 86 | 240 | 0.0 | 0.0 | 0.00 | 0.00 | 0.00 | 51 | 1022.2 |
| 20260830194446 | 84 | 246 | 1.7 | 1.7 | 0.00 | 0.00 | 0.00 | 53 | 1022.5 |
| 20260830191443 | 85 | 324 | 1.7 | 1.7 | 0.00 | 0.00 | 0.00 | 52 | 1023.3 |
| 20260830184440 | 84 | 253 | 2.6 | 3.5 | 0.00 | 0.00 | 0.00 | 57 | 1023.7 |
| 20260830181436 | 82 | 78 | 1.7 | 1.7 | 0.00 | 0.00 | 0.00 | 60 | 1024.0 |
| 20260830174431 | 83 | 196 | 1.7 | 1.7 | 0.00 | 0.00 | 0.00 | 63 | 1024.3 |
| 20260830171428 | 80 | 262 | 0.9 | 0.9 | 0.00 | 0.00 | 0.00 | 66 | 1024.7 |
| 20260830164426 | 80 | 241 | 3.5 | 3.5 | 0.00 | 0.00 | 0.00 | 67 | 1025.0 |
| 20260830161425 | 78 | 240 | 1.7 | 1.7 | 0.00 | 0.00 | 0.00 | 70 | 1025.0 |
| 20260830154421 | 78 | 174 | 2.6 | 2.6 | 0.00 | 0.00 | 0.00 | 70 | 1025.0 |
| 20260830151419 | 76 | 180 | 0.0 | 0.0 | 0.00 | 0.00 | 0.00 | 76 | 1025.3 |
| 20260830144418 | 74 | 256 | 0.9 | 0.9 | 0.00 | 0.00 | 0.00 | 79 | 1025.3 |
| 20260830141415 | 73 | 281 | 0.0 | 0.0 | 0.00 | 0.00 | 0.00 | 80 | 1025.3 |
| 20260830134415 | 71 | 257 | 0.0 | 0.0 | 0.00 | 0.00 | 0.00 | 83 | 1025.0 |
| 20260830131413 | 70 | 265 | 1.7 | 1.7 | 0.00 | 0.00 | 0.00 | 82 | 1025.7 |
| 20260830124409 | 68 | 319 | 0.0 | 0.0 | 0.00 | 0.00 | 0.00 | 85 | 1025.7 |
| 20260830121407 | 66 | 54 | 0.0 | 0.0 | 0.00 | 0.00 | 0.00 | 90 | 1025.7 |
| 20260830114405 | 64 | 54 | 0.0 | 0.0 | 0.00 | 0.00 | 0.00 | 89 | 1025.7 |
| 20260830111400 | 62 | 54 | 0.0 | 0.0 | 0.00 | 0.00 | 0.00 | 94 | 1025.3 |
| 20260830104357 | 62 | 54 | 0.0 | 0.0 | 0.00 | 0.00 | 0.00 | 95 | 1025.7 |
| 20260830101354 | 62 | 60 | 0.0 | 0.0 | 0.00 | 0.00 | 0.00 | 94 | 1025.7 |